TimeEDT,TemperatureF,Dew PointF,Humidity,Sea Level PressureIn,VisibilityMPH,Wind Direction,Wind SpeedMPH,Gust SpeedMPH,PrecipitationIn,Events,Conditions,WindDirDegrees,DateUTC
12:52 AM,35.1,28.9,78,30.30,10.0,Calm,Calm,-,N/A,,Mostly Cloudy,0,2013-03-11 04:52:00
1:52 AM,35.1,28.9,78,30.30,10.0,SSW,5.8,-,N/A,,Clear,210,2013-03-11 05:52:00
2:52 AM,34.0,28.9,82,30.27,10.0,SSW,5.8,-,N/A,,Clear,210,2013-03-11 06:52:00
3:52 AM,33.1,28.0,82,30.26,10.0,SSW,8.1,-,N/A,,Clear,210,2013-03-11 07:52:00
4:52 AM,32.0,28.0,85,30.25,10.0,SSW,8.1,-,N/A,,Clear,200,2013-03-11 08:52:00
6:05 AM,30.2,28.4,93,30.20,10.0,SSW,9.2,-,N/A,,Partly Cloudy,200,2013-03-11 10:05:00
6:52 AM,30.9,28.9,92,30.24,10.0,SSW,6.9,-,N/A,,Mostly Cloudy,200,2013-03-11 10:52:00
7:52 AM,32.0,28.9,88,30.24,10.0,SSW,5.8,-,N/A,,Overcast,200,2013-03-11 11:52:00
8:52 AM,34.0,30.0,85,30.24,10.0,SSW,6.9,-,N/A,,Mostly Cloudy,210,2013-03-11 12:52:00
9:04 AM,33.8,30.2,87,30.19,10.0,SSW,8.1,-,N/A,,Scattered Clouds,200,2013-03-11 13:04:00
9:52 AM,36.0,30.0,79,30.25,10.0,Variable,5.8,-,N/A,,Clear,0,2013-03-11 13:52:00
10:52 AM,36.0,30.0,79,30.26,10.0,South,10.4,-,N/A,,Clear,190,2013-03-11 14:52:00
11:52 AM,37.9,30.9,76,30.24,10.0,SSW,9.2,-,N/A,,Clear,210,2013-03-11 15:52:00
12:52 PM,41.0,30.0,65,30.23,10.0,SSW,9.2,-,N/A,,Scattered Clouds,200,2013-03-11 16:52:00
1:52 PM,43.0,28.9,58,30.20,10.0,South,8.1,-,N/A,,Mostly Cloudy,180,2013-03-11 17:52:00
2:52 PM,44.1,28.9,55,30.19,10.0,South,10.4,-,N/A,,Scattered Clouds,190,2013-03-11 18:52:00
3:52 PM,44.1,28.9,55,30.19,10.0,SSW,5.8,-,N/A,,Overcast,200,2013-03-11 19:52:00
4:52 PM,44.1,28.9,55,30.17,10.0,SSW,4.6,-,N/A,,Overcast,210,2013-03-11 20:52:00
5:52 PM,42.1,30.0,62,30.16,10.0,South,3.5,-,N/A,,Partly Cloudy,190,2013-03-11 21:52:00
6:52 PM,39.0,30.0,70,30.16,10.0,SSW,3.5,-,N/A,,Clear,200,2013-03-11 22:52:00
7:52 PM,42.1,30.9,65,30.15,10.0,South,6.9,-,N/A,,Partly Cloudy,190,2013-03-11 23:52:00
8:52 PM,41.0,34.0,76,30.17,10.0,South,8.1,-,N/A,,Clear,190,2013-03-12 00:52:00
9:26 PM,41.0,35.6,81,30.12,10.0,South,10.4,-,N/A,,Mostly Cloudy,190,2013-03-12 01:26:00
9:52 PM,41.0,36.0,82,30.16,10.0,SSW,11.5,-,N/A,,Mostly Cloudy,200,2013-03-12 01:52:00
11:52 PM,42.1,37.0,82,30.14,10.0,South,9.2,17.3,N/A,,Overcast,190,2013-03-12 03:52:00